This demonstration page uses our WeatherBlox Daily Observations layout. Learn more.

Left ArrowRight Arrow

Hourly Observations for November 23, 2022

Temp ( °F °C ) Dew Point ( °F °C ) Humidity (%) Winds ( mph kmh ) Pressure ( in mb ) Visibility ( mi km ) Precip ( " mm )
12:56 am 00:56 Clear 24 -4.4 12 -11.1 59 59 NNW 6 9 30.06 1018 10 16 0.00 0.00
1:56 am 01:56 Clear 23 -5 11 -11.7 59 59 NW 6 9 30.03 1017 10 16 0.00 0.00
2:56 am 02:56 Clear 24 -4.4 12 -11.1 59 59 W 3 6 30.02 1017 10 16 0.00 0.00
3:56 am 03:56 Clear 24 -4.4 13 -10.6 62 62 Calm 30.01 1016 10 16 0.00 0.00
4:56 am 04:56 Clear 24 -4.4 13 -10.6 62 62 NW 3 6 30.00 1016 10 16 0.00 0.00
5:56 am 05:56 Clear 24 -4.4 14 -10 65 65 Calm 29.99 1016 10 16 0.00 0.00
6:56 am 06:56 Clear 22 -5.6 13 -10.6 68 68 WNW 7 11 29.98 1015 10 16 0.00 0.00
7:56 am 07:56 Sunny 22 -5.6 15 -9.4 74 74 Calm 29.99 1016 10 16 0.00 0.00
8:56 am 08:56 Sunny 30 -1.1 19 -7.2 63 63 SE 3 6 29.98 1015 10 16 0.00 0.00
9:56 am 09:56 Sunny 38 3.3 17 -8.3 42 42 S 6 9 29.96 1015 10 16 0.00 0.00
10:56 am 10:56 Sunny 45 7.2 18 -7.8 33 33 SSE 6 9 29.94 1014 10 16 0.00 0.00
11:56 am 11:56 Sunny 53 11.7 17 -8.3 24 24 S 8 13 29.91 1013 10 16 0.00 0.00
12:56 pm 12:56 Sunny 56 13.3 17 -8.3 21 21 SSW 7 11 29.88 1012 10 16 0.00 0.00
1:56 pm 13:56 Sunny 58 14.4 16 -8.9 19 19 S 8 13 29.85 1011 10 16 0.00 0.00
2:56 pm 14:56 Sunny 58 14.4 16 -8.9 19 19 S 8 13 29.84 1011 10 16 0.00 0.00
3:56 pm 15:56 Sunny 57 13.9 16 -8.9 20 20 S 10 17 29.85 1011 10 16 0.00 0.00
4:56 pm 16:56 Sunny 49 9.4 20 -6.7 31 31 SSE 7 11 29.88 1012 10 16 0.00 0.00
5:56 pm 17:56 Clear 42 5.6 22 -5.6 44 44 S 8 13 29.92 1013 10 16 0.00 0.00
6:56 pm 18:56 Clear 37 2.8 22 -5.6 54 54 S 8 13 29.95 1014 10 16 0.00 0.00
7:56 pm 19:56 Clear 32 0 22 -5.6 66 66 SSE 10 17 29.96 1015 10 16 0.00 0.00
8:56 pm 20:56 Clear 36 2.2 24 -4.4 62 62 SSW 6 9 29.98 1015 10 16 0.00 0.00
9:56 pm 21:56 Clear 30 -1.1 23 -5 75 75 SW 5 7 30.00 1016 10 16 0.00 0.00
10:56 pm 22:56 Clear 31 -0.6 23 -5 72 72 WNW 9 15 30.03 1017 10 16 0.00 0.00
11:56 pm 23:56 Clear 30 -1.1 22 -5.6 71 71 NW 9 15 30.02 1017 10 16 0.00 0.00

Powered by AerisWeather